DW0487 Weather Reports


time (UTC)temp
C
wind
direction
speed
KPH
gust
KPH
rain 1hr
cm
rain 24hr
cm
rain mn
cm
humidity
%
barometer
mb
20260502123006 23 334 9.7 19.3 0.00 0.00 0.00 33 1018.9
20260502121501 22 49 9.7 17.7 0.00 0.00 0.00 34 1019.2
20260502120114 22 347 4.8 19.3 0.00 0.00 0.00 32 1019.5
20260502114603 22 47 9.7 20.9 0.00 0.00 0.00 35 1019.7
20260502113057 22 355 6.4 14.5 0.00 0.00 0.00 33 1019.8
20260502111600 21 15 11.3 16.1 0.00 0.00 0.00 34 1020.2
20260502110053 21 350 8.0 17.7 0.00 0.00 0.00 34 1020.6
20260502104554 22 304 4.8 16.1 0.00 0.00 0.00 34 1020.6
20260502103049 22 333 3.2 14.5 0.00 0.00 0.00 28 1020.8
20260502101548 22 89 1.6 9.7 0.00 0.00 0.00 30 1021.0
20260502091531 21 40 4.8 9.7 0.00 0.00 0.00 30 1021.7
20260502070022 10 341 1.6 12.9 0.00 0.00 0.00 65 1023.5
20260502064515 8 35 3.2 6.4 0.00 0.00 0.00 73 1023.5
20260502063011 7 47 3.2 8.0 0.00 0.00 0.00 78 1023.6
20260502061507 5 37 1.6 6.4 0.00 0.00 0.00 85 1023.7
20260502060001 3 70 3.2 6.4 0.00 0.00 0.00 89 1023.8
20260502054557 2 46 1.6 3.2 0.00 0.00 0.00 91 1023.9
20260502053053 1 42 0.0 3.2 0.00 0.00 0.00 90 1024.1
20260502051629 0 96 0.0 0.0 0.00 0.00 0.00 89 1024.2
20260502050059 0 96 0.0 0.0 0.00 0.00 0.00 88 1024.2
20260502044557 0 96 0.0 0.0 0.00 0.00 0.00 88 1024.1
20260502043050 0 131 0.0 4.8 0.00 0.00 0.00 87 1024.2
20260502041548 0 169 0.0 0.0 0.00 0.00 0.00 87 1024.0
20260502040047 0 223 0.0 1.6 0.00 0.00 0.00 87 1023.9
20260502034547 0 118 0.0 0.0 0.00 0.00 0.00 86 1023.9
20260502033051 0 284 0.0 3.2 0.00 0.00 0.00 86 1024.0
20260502031602 0 188 0.0 0.0 0.00 0.00 0.00 85 1024.0
20260502030041 0 152 0.0 0.0 0.00 0.00 0.00 85 1024.0
20260502024539 1 152 0.0 0.0 0.00 0.00 0.00 84 1024.1
20260502023038 1 123 0.0 4.8 0.00 0.00 0.00 85 1024.0
20260502021536 1 142 0.0 4.8 0.00 0.00 0.00 84 1024.0
20260502020033 1 59 0.0 1.6 0.00 0.00 0.00 84 1024.2
20260502014533 1 23 0.0 1.6 0.00 0.00 0.00 83 1024.2
20260502013031 1 25 0.0 3.2 0.00 0.00 0.00 83 1024.3
20260502011531 2 86 0.0 0.0 0.00 0.00 0.00 82 1024.4
20260502010027 2 69 0.0 0.0 0.00 0.00 0.00 82 1024.6
20260502004525 2 120 0.0 3.2 0.00 0.00 0.00 82 1024.6
20260502003023 2 118 1.6 4.8 0.00 0.00 0.00 82 1024.7
20260502001521 2 200 0.0 4.8 0.00 0.00 0.00 81 1024.9
20260502000021 3 107 1.6 3.2 0.00 0.00 0.00 81 1024.8
20260501234515 3 208 0.0 0.0 0.00 0.00 0.00 79 1024.9
20260501233015 3 208 0.0 0.0 0.00 0.00 0.00 78 1025.0
20260501231525 3 228 0.0 4.8 0.00 0.00 0.00 77 1025.1
20260501230011 4 288 0.0 0.0 0.00 0.00 0.00 78 1025.0
20260501224506 4 176 0.0 0.0 0.00 0.00 0.00 76 1025.2
20260501223004 5 103 0.0 3.2 0.00 0.00 0.00 75 1025.2
20260501221601 5 173 0.0 0.0 0.00 0.00 0.00 71 1025.3
20260501220056 6 173 0.0 3.2 0.00 0.00 0.00 73 1025.2
20260501214604 6 203 0.0 3.2 0.00 0.00 0.00 72 1025.1
20260501213102 6 213 0.0 1.6 0.00 0.00 0.00 70 1025.2
20260501211556 7 220 0.0 1.6 0.00 0.00 0.00 66 1025.1
20260501210055 7 169 0.0 3.2 0.00 0.00 0.00 65 1025.1
20260501204554 8 156 0.0 0.0 0.00 0.00 0.00 64 1025.0
20260501203058 8 150 0.0 3.2 0.00 0.00 0.00 64 1025.0
20260501201554 9 195 0.0 3.2 0.00 0.00 0.00 59 1025.0
20260501200053 10 158 0.0 0.0 0.00 0.00 0.00 58 1025.0
20260501194600 11 153 1.6 6.4 0.00 0.00 0.00 57 1024.8
20260501193052 11 292 0.0 0.0 0.00 0.00 0.00 53 1024.8
20260501191552 12 297 0.0 0.0 0.00 0.00 0.00 50 1024.5
20260501190109 13 318 0.0 0.0 0.00 0.00 0.00 48 1024.6
20260501184552 13 290 3.2 9.7 0.00 0.00 0.00 47 1024.3
20260501183051 14 24 4.8 8.0 0.00 0.00 0.00 44 1024.0
20260501181551 15 28 4.8 19.3 0.00 0.00 0.00 42 1023.8
20260501180049 15 47 6.4 14.5 0.00 0.00 0.00 41 1023.8
20260501174602 17 28 8.0 14.5 0.00 0.00 0.00 39 1023.8
20260501173103 17 5 9.7 17.7 0.00 0.00 0.00 36 1023.7
20260501171555 18 53 9.7 19.3 0.00 0.00 0.00 34 1023.6
20260501170047 18 19 9.7 19.3 0.00 0.00 0.00 34 1023.5
20260501164547 19 32 11.3 20.9 0.00 0.00 0.00 33 1023.5
20260501163046 19 67 9.7 20.9 0.00 0.00 0.00 32 1023.4
20260501161546 20 49 9.7 19.3 0.00 0.00 0.00 31 1023.5
20260501160052 20 33 9.7 20.9 0.00 0.00 0.00 30 1023.5
20260501154556 20 45 9.7 22.5 0.00 0.00 0.00 31 1023.6
20260501153043 20 54 12.9 20.9 0.00 0.00 0.00 31 1023.7
20260501151547 20 360 12.9 20.9 0.00 0.00 0.00 31 1023.8